This demonstration page uses our WeatherBlox Daily Observations layout. Learn more.

Left ArrowRight Arrow

Hourly Observations for May 21, 2022

Temp ( °F °C ) Dew Point ( °F °C ) Humidity (%) Winds ( mph kmh ) Pressure ( in mb ) Visibility ( mi km ) Precip ( " mm )
12:53 am 00:53 Clear 77 25 64 17.8 64 64 Calm 29.85 1011 10 16 0.00 0.00
1:53 am 01:53 Clear 76 24.4 64 17.8 67 67 S 3 6 29.86 1011 10 16 0.00 0.00
2:53 am 02:53 Clear 76 24.4 63 17.2 64 64 SSW 7 11 29.88 1012 10 16 0.00 0.00
3:53 am 03:53 Partly Cloudy 76 24.4 63 17.2 64 64 VRB 5 7 29.88 1012 N/A 0.00 0.00
4:53 am 04:53 Mostly Clear 74 23.3 63 17.2 69 69 VRB 3 6 29.90 1012 N/A 0.00 0.00
5:53 am 05:53 Mostly Clear 69 20.6 63 17.2 81 81 Calm 29.91 1013 N/A 0.00 0.00
6:53 am 06:53 Mostly Sunny 71 21.7 64 17.8 79 79 Calm 29.94 1014 N/A 0.00 0.00
7:53 am 07:53 Sunny 75 23.9 65 18.3 71 71 VRB 3 6 29.95 1014 N/A 0.00 0.00
8:53 am 08:53 Sunny 78 25.6 66 18.9 67 67 VRB 7 11 29.97 1015 N/A 0.00 0.00
9:53 am 09:53 Sunny 80 26.7 67 19.4 64 64 undefined N/A 29.97 1015 N/A 0.00 0.00
10:53 am 10:53 Sunny 82 27.8 69 20.6 65 65 VRB 5 7 29.98 1015 N/A 0.00 0.00
11:53 am 11:53 Mostly Sunny 83 28.3 69 20.6 63 63 SW 9 15 29.97 1015 N/A 0.00 0.00
12:53 pm 12:53 Mostly Cloudy 82 27.8 70 21.1 67 67 VRB 3 6 29.98 1015 N/A 0.00 0.00
1:53 pm 13:53 Mostly Cloudy 83 28.3 71 21.7 67 67 WSW 8 13 29.98 1015 N/A 0.00 0.00
2:16 pm 14:16 Partly Cloudy with Nearby Thunderstorms 85 29.4 71 21.7 63 63 VRB 6 9 29.97 1015 N/A 0.00 0.00
2:53 pm 14:53 Partly Cloudy with Nearby Thunderstorms 80 26.7 71 21.7 74 74 SW 3 6 29.96 1014 10 16 0.02 0.51
3:17 pm 15:17 Cloudy with Thunderstorms 78 25.6 72 22.2 82 82 VRB 5 7 29.96 1015 10 16 0.03 0.76
3:32 pm 15:32 Cloudy with Nearby Thunderstorms 74 23.3 69 20.6 85 85 VRB 7 11 29.98 1015 10 16 0.04 1.02
3:53 pm 15:53 Cloudy with Nearby Thunderstorms 71 21.7 68 20 90 90 VRB 3 6 29.98 1015 10 16 0.05 1.27
4:06 pm 16:06 Mostly Cloudy 72 22.2 68 20 87 87 Calm 29.96 1015 10 16 0.00 0.00
4:42 pm 16:42 Partly Cloudy with Nearby Thunderstorms 72 22.2 68 20 87 87 Calm 29.97 1015 10 16 0.00 0.00
4:53 pm 16:53 Mostly Cloudy with Nearby Thunderstorms 71 21.7 68 20 90 90 SSE 7 11 29.98 1015 10 16 0.00 0.00
5:00 pm 17:00 Mostly Cloudy with Thunderstorms 71 21.7 67 19.4 87 87 VRB 5 7 29.98 1015 10 16 0.01 0.25
5:15 pm 17:15 Cloudy with Nearby Thunderstorms 71 21.7 68 20 90 90 VRB 5 7 29.98 1015 10 16 0.10 2.54
5:31 pm 17:31 Cloudy with Strong Thunderstorms 69 20.6 65 18.3 87 87 W 14 22 30.04 1017 10 16 0.14 3.56
5:40 pm 17:40 Cloudy with Thunderstorms 68 20 65 18.3 90 90 NW 12 19 30.03 1017 10 16 0.19 4.83
5:53 pm 17:53 Cloudy with Nearby Thunderstorms 68 20 66 18.9 93 93 Calm 30.04 1017 10 16 0.19 4.83
6:04 pm 18:04 Mostly Cloudy 68 20 67 19.4 96 96 VRB 3 6 30.04 1017 10 16 0.00 0.00
6:53 pm 18:53 Mostly Cloudy with Light Rain 67 19.4 65 18.3 93 93 ESE 9 15 29.93 1014 10 16 0.05 1.27
7:53 pm 19:53 Sunny 68 20 65 18.3 90 90 Calm 29.98 1015 10 16 0.01 0.25
8:53 pm 20:53 Clear 66 18.9 65 18.3 96 96 Calm 30.02 1017 10 16 0.00 0.00
9:53 pm 21:53 Clear 66 18.9 65 18.3 96 96 Calm 30.04 1017 10 16 0.00 0.00
10:53 pm 22:53 Partly Cloudy 65 18.3 64 17.8 97 97 Calm 30.06 1018 10 16 0.00 0.00
11:26 pm 23:26 Cloudy with Nearby Thunderstorms 67 19.4 66 18.9 97 97 Calm 30.07 1018 10 16 0.00 0.00
11:53 pm 23:53 Cloudy with Nearby Thunderstorms 67 19.4 65 18.3 93 93 NNW 3 6 30.06 1018 10 16 0.04 1.02

Powered by AerisWeather